Wetterdaten: Mittwoch, 01.07.2015
Datum Zeit Temp. A. Feuchte A. Luftdruck Regen Wind Richtung Richtung Sonnenschein ET UV Solar Taupunkt Windchill Windben Empfang
01.07.2015 00:00 16,4 C 82 % 1019,4 hPa 0,0 l/m 0,0 km/h (0 Bft) NO 52 0 min 0,000 mm 0,0 UV-I 0 W/m 13,3 C 16,4 C 0,0 km/h (0 Bft) 0,00 %
01.07.2015 00:05 16,4 C 82 % 1019,5 hPa 0,0 l/m 0,0 km/h (0 Bft) N-NW 345 0 min 0,000 mm 0,0 UV-I 0 W/m 13,3 C 16,4 C 0,0 km/h (0 Bft) 0,00 %
01.07.2015 00:10 16,3 C 83 % 1019,4 hPa 0,0 l/m 0,0 km/h (0 Bft) NO 48 0 min 0,000 mm 0,0 UV-I 0 W/m 13,4 C 16,3 C 0,0 km/h (0 Bft) 0,00 %
01.07.2015 00:15 16,3 C 83 % 1019,4 hPa 0,0 l/m 0,0 km/h (0 Bft) NO 55 0 min 0,000 mm 0,0 UV-I 0 W/m 13,4 C 16,3 C 0,0 km/h (0 Bft) 0,00 %
01.07.2015 00:20 16,3 C 84 % 1019,4 hPa 0,0 l/m 0,0 km/h (0 Bft) NO 55 0 min 0,000 mm 0,0 UV-I 0 W/m 13,6 C 16,3 C 0,0 km/h (0 Bft) 0,00 %
01.07.2015 00:25 16,2 C 85 % 1019,4 hPa 0,0 l/m 0,0 km/h (0 Bft) NO 55 0 min 0,000 mm 0,0 UV-I 0 W/m 13,7 C 16,2 C 0,0 km/h (0 Bft) 0,00 %
01.07.2015 00:30 16,1 C 85 % 1019,6 hPa 0,0 l/m 0,0 km/h (0 Bft) NO 55 0 min 0,000 mm 0,0 UV-I 0 W/m 13,6 C 16,1 C 0,0 km/h (0 Bft) 0,00 %
01.07.2015 00:35 16,0 C 85 % 1019,5 hPa 0,0 l/m 0,0 km/h (0 Bft) NO 55 0 min 0,000 mm 0,0 UV-I 0 W/m 13,5 C 16,0 C 0,0 km/h (0 Bft) 0,00 %
01.07.2015 00:40 15,8 C 86 % 1019,5 hPa 0,0 l/m 0,0 km/h (0 Bft) NO 35 0 min 0,000 mm 0,0 UV-I 0 W/m 13,5 C 15,8 C 0,0 km/h (0 Bft) 0,00 %
01.07.2015 00:45 15,7 C 87 % 1019,5 hPa 0,0 l/m 0,0 km/h (0 Bft) NO 36 0 min 0,000 mm 0,0 UV-I 0 W/m 13,5 C 15,7 C 0,0 km/h (0 Bft) 0,00 %
01.07.2015 00:50 15,5 C 88 % 1019,6 hPa 0,0 l/m 0,0 km/h (0 Bft) N-NO 33 0 min 0,000 mm 0,0 UV-I 0 W/m 13,5 C 15,5 C 0,0 km/h (0 Bft) 0,00 %
01.07.2015 00:55 15,4 C 88 % 1019,6 hPa 0,0 l/m 0,0 km/h (0 Bft) NO 40 0 min 0,000 mm 0,0 UV-I 0 W/m 13,4 C 15,4 C 0,0 km/h (0 Bft) 0,00 %
01.07.2015 01:00 15,3 C 89 % 1019,5 hPa 0,0 l/m 0,0 km/h (0 Bft) NO 45 0 min 0,000 mm 0,0 UV-I 0 W/m 13,5 C 15,3 C 0,0 km/h (0 Bft) 0,00 %
01.07.2015 01:05 15,3 C 89 % 1019,5 hPa 0,0 l/m 0,0 km/h (0 Bft) NO 52 0 min 0,000 mm 0,0 UV-I 0 W/m 13,5 C 15,3 C 0,0 km/h (0 Bft) 0,00 %
01.07.2015 01:10 15,2 C 90 % 1019,7 hPa 0,0 l/m 0,0 km/h (0 Bft) O-NO 71 0 min 0,000 mm 0,0 UV-I 0 W/m 13,6 C 15,2 C 0,0 km/h (0 Bft) 0,00 %
01.07.2015 01:15 15,5 C 89 % 1019,6 hPa 0,0 l/m 0,0 km/h (0 Bft) O-NO 58 0 min 0,000 mm 0,0 UV-I 0 W/m 13,7 C 15,5 C 0,0 km/h (0 Bft) 0,00 %
01.07.2015 01:20 15,9 C 89 % 1019,5 hPa 0,0 l/m 0,4 km/h (0 Bft) O-NO 71 0 min 0,000 mm 0,0 UV-I 0 W/m 14,1 C 15,9 C 4,0 km/h (1 Bft) 0,00 %
01.07.2015 01:25 16,4 C 87 % 1019,3 hPa 0,0 l/m 0,7 km/h (0 Bft) O 95 0 min 0,000 mm 0,0 UV-I 0 W/m 14,2 C 16,4 C 4,0 km/h (1 Bft) 0,00 %
01.07.2015 01:30 16,7 C 85 % 1019,3 hPa 0,0 l/m 0,0 km/h (0 Bft) O-NO 60 0 min 0,000 mm 0,0 UV-I 0 W/m 14,2 C 16,7 C 0,0 km/h (0 Bft) 0,00 %
01.07.2015 01:35 16,8 C 84 % 1019,3 hPa 0,0 l/m 0,0 km/h (0 Bft) O-NO 72 0 min 0,000 mm 0,0 UV-I 0 W/m 14,1 C 16,8 C 0,0 km/h (0 Bft) 0,00 %
01.07.2015 01:40 16,6 C 84 % 1019,3 hPa 0,0 l/m 0,0 km/h (0 Bft) NO 44 0 min 0,000 mm 0,0 UV-I 0 W/m 13,9 C 16,6 C 0,0 km/h (0 Bft) 0,00 %
01.07.2015 01:45 16,4 C 84 % 1019,4 hPa 0,0 l/m 0,0 km/h (0 Bft) N 355 0 min 0,000 mm 0,0 UV-I 0 W/m 13,7 C 16,4 C 0,0 km/h (0 Bft) 0,00 %
01.07.2015 01:50 16,1 C 85 % 1019,5 hPa 0,0 l/m 0,0 km/h (0 Bft) NO 41 0 min 0,000 mm 0,0 UV-I 0 W/m 13,6 C 16,1 C 0,0 km/h (0 Bft) 0,00 %
01.07.2015 01:55 15,9 C 86 % 1019,5 hPa 0,0 l/m 0,0 km/h (0 Bft) NO 38 0 min 0,000 mm 0,0 UV-I 0 W/m 13,6 C 15,9 C 0,0 km/h (0 Bft) 0,00 %
01.07.2015 02:00 15,6 C 87 % 1019,4 hPa 0,0 l/m 0,0 km/h (0 Bft) N 356 0 min 0,000 mm 0,0 UV-I 0 W/m 13,4 C 15,6 C 0,0 km/h (0 Bft) 0,00 %
01.07.2015 02:05 15,5 C 88 % 1019,6 hPa 0,0 l/m 0,0 km/h (0 Bft) N-NO 31 0 min 0,000 mm 0,0 UV-I 0 W/m 13,5 C 15,5 C 0,0 km/h (0 Bft) 0,00 %
01.07.2015 02:10 15,4 C 89 % 1019,6 hPa 0,0 l/m 0,0 km/h (0 Bft) N-NO 33 0 min 0,000 mm 0,0 UV-I 0 W/m 13,6 C 15,4 C 0,0 km/h (0 Bft) 0,00 %
01.07.2015 02:15 15,4 C 89 % 1019,5 hPa 0,0 l/m 0,0 km/h (0 Bft) N-NO 33 0 min 0,000 mm 0,0 UV-I 0 W/m 13,6 C 15,4 C 0,0 km/h (0 Bft) 0,00 %
01.07.2015 02:20 15,3 C 89 % 1019,6 hPa 0,0 l/m 0,0 km/h (0 Bft) N-NO 33 0 min 0,000 mm 0,0 UV-I 0 W/m 13,5 C 15,3 C 0,0 km/h (0 Bft) 0,00 %
01.07.2015 02:25 15,2 C 90 % 1019,6 hPa 0,0 l/m 0,0 km/h (0 Bft) NO 35 0 min 0,000 mm 0,0 UV-I 0 W/m 13,6 C 15,2 C 0,0 km/h (0 Bft) 0,00 %
01.07.2015 02:30 15,1 C 91 % 1019,5 hPa 0,0 l/m 0,0 km/h (0 Bft) NO 50 0 min 0,000 mm 0,0 UV-I 0 W/m 13,6 C 15,1 C 0,0 km/h (0 Bft) 0,00 %
01.07.2015 02:35 15,0 C 91 % 1019,6 hPa 0,0 l/m 0,0 km/h (0 Bft) NO 48 0 min 0,000 mm 0,0 UV-I 0 W/m 13,5 C 15,0 C 0,0 km/h (0 Bft) 0,00 %
01.07.2015 02:40 14,8 C 91 % 1019,8 hPa 0,0 l/m 0,0 km/h (0 Bft) N-NO 33 0 min 0,000 mm 0,0 UV-I 0 W/m 13,3 C 14,8 C 0,0 km/h (0 Bft) 0,00 %
01.07.2015 02:45 14,7 C 91 % 1019,6 hPa 0,0 l/m 0,0 km/h (0 Bft) NO 42 0 min 0,000 mm 0,0 UV-I 0 W/m 13,2 C 14,7 C 0,0 km/h (0 Bft) 0,00 %
01.07.2015 02:50 14,6 C 91 % 1019,6 hPa 0,0 l/m 0,0 km/h (0 Bft) NO 42 0 min 0,000 mm 0,0 UV-I 0 W/m 13,1 C 14,6 C 0,0 km/h (0 Bft) 0,00 %
01.07.2015 02:55 14,5 C 92 % 1019,8 hPa 0,0 l/m 0,0 km/h (0 Bft) NO 49 0 min 0,000 mm 0,0 UV-I 0 W/m 13,2 C 14,5 C 0,0 km/h (0 Bft) 0,00 %
01.07.2015 03:00 14,4 C 92 % 1019,7 hPa 0,0 l/m 0,0 km/h (0 Bft) NO 49 0 min 0,000 mm 0,0 UV-I 0 W/m 13,1 C 14,4 C 0,0 km/h (0 Bft) 0,00 %
01.07.2015 03:05 14,4 C 93 % 1019,5 hPa 0,0 l/m 0,0 km/h (0 Bft) NO 49 0 min 0,000 mm 0,0 UV-I 0 W/m 13,3 C 14,4 C 0,0 km/h (0 Bft) 0,00 %
01.07.2015 03:10 14,3 C 93 % 1019,6 hPa 0,0 l/m 0,0 km/h (0 Bft) O-NO 62 0 min 0,000 mm 0,0 UV-I 0 W/m 13,2 C 14,3 C 0,0 km/h (0 Bft) 0,00 %
01.07.2015 03:15 14,3 C 93 % 1019,6 hPa 0,0 l/m 0,0 km/h (0 Bft) O-NO 62 0 min 0,000 mm 0,0 UV-I 0 W/m 13,2 C 14,3 C 0,0 km/h (0 Bft) 0,00 %
01.07.2015 03:20 14,3 C 93 % 1019,7 hPa 0,0 l/m 0,0 km/h (0 Bft) O-NO 62 0 min 0,000 mm 0,0 UV-I 0 W/m 13,2 C 14,3 C 0,0 km/h (0 Bft) 0,00 %
01.07.2015 03:25 14,3 C 93 % 1019,6 hPa 0,0 l/m 0,0 km/h (0 Bft) O-NO 62 0 min 0,000 mm 0,0 UV-I 0 W/m 13,2 C 14,3 C 0,0 km/h (0 Bft) 0,00 %
01.07.2015 03:30 14,2 C 93 % 1019,5 hPa 0,0 l/m 0,0 km/h (0 Bft) NO 46 0 min 0,000 mm 0,0 UV-I 0 W/m 13,1 C 14,2 C 0,0 km/h (0 Bft) 0,00 %
01.07.2015 03:35 14,1 C 94 % 1019,7 hPa 0,0 l/m 0,0 km/h (0 Bft) NO 44 0 min 0,000 mm 0,0 UV-I 0 W/m 13,1 C 14,1 C 0,0 km/h (0 Bft) 0,00 %
01.07.2015 03:40 14,0 C 94 % 1019,7 hPa 0,0 l/m 0,0 km/h (0 Bft) NO 42 0 min 0,000 mm 0,0 UV-I 0 W/m 13,0 C 14,0 C 0,0 km/h (0 Bft) 0,00 %
01.07.2015 03:45 13,9 C 94 % 1019,6 hPa 0,0 l/m 0,0 km/h (0 Bft) NO 46 0 min 0,000 mm 0,0 UV-I 0 W/m 12,9 C 13,9 C 0,0 km/h (0 Bft) 0,00 %
01.07.2015 03:50 13,8 C 94 % 1019,7 hPa 0,0 l/m 0,0 km/h (0 Bft) NO 46 0 min 0,000 mm 0,0 UV-I 0 W/m 12,9 C 13,8 C 0,0 km/h (0 Bft) 0,00 %
01.07.2015 03:55 13,7 C 94 % 1019,8 hPa 0,0 l/m 0,0 km/h (0 Bft) NO 39 0 min 0,000 mm 0,0 UV-I 0 W/m 12,8 C 13,7 C 0,0 km/h (0 Bft) 0,00 %
01.07.2015 04:00 13,6 C 95 % 1019,8 hPa 0,0 l/m 0,0 km/h (0 Bft) N-NO 33 0 min 0,000 mm 0,0 UV-I 0 W/m 12,8 C 13,6 C 0,0 km/h (0 Bft) 0,00 %
01.07.2015 04:05 13,6 C 95 % 1020,0 hPa 0,0 l/m 0,0 km/h (0 Bft) N 1 0 min 0,000 mm 0,0 UV-I 0 W/m 12,8 C 13,6 C 0,0 km/h (0 Bft) 0,00 %
01.07.2015 04:10 13,6 C 95 % 1020,1 hPa 0,0 l/m 0,0 km/h (0 Bft) O-NO 65 0 min 0,000 mm 0,0 UV-I 0 W/m 12,8 C 13,6 C 0,0 km/h (0 Bft) 0,00 %
01.07.2015 04:15 13,7 C 95 % 1019,8 hPa 0,0 l/m 0,0 km/h (0 Bft) NO 42 0 min 0,000 mm 0,0 UV-I 0 W/m 12,9 C 13,7 C 0,0 km/h (0 Bft) 0,00 %
01.07.2015 04:20 13,7 C 95 % 1019,8 hPa 0,0 l/m 0,0 km/h (0 Bft) NO 36 0 min 0,000 mm 0,0 UV-I 0 W/m 12,9 C 13,7 C 0,0 km/h (0 Bft) 0,00 %
01.07.2015 04:25 13,8 C 96 % 1019,7 hPa 0,0 l/m 0,0 km/h (0 Bft) NO 45 0 min 0,000 mm 0,0 UV-I 0 W/m 13,2 C 13,8 C 0,0 km/h (0 Bft) 0,00 %
01.07.2015 04:30 13,8 C 96 % 1019,8 hPa 0,0 l/m 0,0 km/h (0 Bft) NO 45 0 min 0,000 mm 0,0 UV-I 0 W/m 13,2 C 13,8 C 0,0 km/h (0 Bft) 0,00 %
01.07.2015 04:35 13,8 C 96 % 1019,8 hPa 0,0 l/m 0,0 km/h (0 Bft) NO 46 0 min 0,000 mm 0,0 UV-I 0 W/m 13,2 C 13,8 C 0,0 km/h (0 Bft) 0,00 %
01.07.2015 04:40 13,7 C 96 % 1019,9 hPa 0,0 l/m 0,0 km/h (0 Bft) NO 37 0 min 0,000 mm 0,0 UV-I 0 W/m 13,1 C 13,7 C 0,0 km/h (0 Bft) 0,00 %
01.07.2015 04:45 13,6 C 96 % 1019,8 hPa 0,0 l/m 0,0 km/h (0 Bft) NO 40 0 min 0,000 mm 0,0 UV-I 0 W/m 13,0 C 13,6 C 0,0 km/h (0 Bft) 0,00 %
01.07.2015 04:50 13,6 C 96 % 1019,7 hPa 0,0 l/m 0,0 km/h (0 Bft) NO 40 0 min 0,000 mm 0,0 UV-I 0 W/m 13,0 C 13,6 C 0,0 km/h (0 Bft) 0,00 %
01.07.2015 04:55 13,4 C 96 % 1019,9 hPa 0,0 l/m 0,0 km/h (0 Bft) NO 35 0 min 0,000 mm 0,0 UV-I 0 W/m 12,8 C 13,4 C 0,0 km/h (0 Bft) 0,00 %
01.07.2015 05:00 13,4 C 96 % 1019,9 hPa 0,0 l/m 0,0 km/h (0 Bft) NO 36 0 min 0,000 mm 0,0 UV-I 0 W/m 12,8 C 13,4 C 0,0 km/h (0 Bft) 0,00 %
01.07.2015 05:05 13,3 C 96 % 1019,9 hPa 0,0 l/m 0,0 km/h (0 Bft) NO 37 0 min 0,000 mm 0,0 UV-I 0 W/m 12,7 C 13,3 C 0,0 km/h (0 Bft) 0,00 %
01.07.2015 05:10 13,2 C 96 % 1019,9 hPa 0,0 l/m 0,0 km/h (0 Bft) NO 37 0 min 0,000 mm 0,0 UV-I 0 W/m 12,6 C 13,2 C 0,0 km/h (0 Bft) 0,00 %
01.07.2015 05:15 13,1 C 96 % 1019,8 hPa 0,0 l/m 0,0 km/h (0 Bft) NO 35 0 min 0,000 mm 0,0 UV-I 0 W/m 12,5 C 13,1 C 0,0 km/h (0 Bft) 0,00 %
01.07.2015 05:20 13,1 C 96 % 1020,1 hPa 0,0 l/m 0,0 km/h (0 Bft) NO 38 0 min 0,000 mm 0,0 UV-I 7 W/m 12,5 C 13,1 C 0,0 km/h (0 Bft) 0,00 %
01.07.2015 05:25 13,1 C 96 % 1019,9 hPa 0,0 l/m 0,0 km/h (0 Bft) NO 38 0 min 0,000 mm 0,0 UV-I 12 W/m 12,5 C 13,1 C 0,0 km/h (0 Bft) 0,00 %
01.07.2015 05:30 13,1 C 96 % 1020,1 hPa 0,0 l/m 0,0 km/h (0 Bft) NO 48 0 min 0,000 mm 0,0 UV-I 21 W/m 12,5 C 13,1 C 0,0 km/h (0 Bft) 0,00 %
01.07.2015 05:35 13,1 C 96 % 1019,9 hPa 0,0 l/m 0,0 km/h (0 Bft) NO 48 0 min 0,000 mm 0,0 UV-I 27 W/m 12,5 C 13,1 C 0,0 km/h (0 Bft) 0,00 %
01.07.2015 05:40 13,1 C 96 % 1020,1 hPa 0,0 l/m 0,0 km/h (0 Bft) NO 48 0 min 0,000 mm 0,0 UV-I 34 W/m 12,5 C 13,1 C 0,0 km/h (0 Bft) 0,00 %
01.07.2015 05:45 13,3 C 96 % 1020,2 hPa 0,0 l/m 0,0 km/h (0 Bft) NO 48 5 min 0,000 mm 0,0 UV-I 43 W/m 12,7 C 13,3 C 0,0 km/h (0 Bft) 0,00 %
01.07.2015 05:50 13,6 C 96 % 1020,0 hPa 0,0 l/m 0,0 km/h (0 Bft) NO 48 5 min 0,000 mm 0,0 UV-I 84 W/m 13,0 C 13,6 C 0,0 km/h (0 Bft) 0,00 %
01.07.2015 05:55 14,2 C 96 % 1020,0 hPa 0,0 l/m 0,0 km/h (0 Bft) NO 50 5 min 0,000 mm 0,0 UV-I 103 W/m 13,6 C 14,2 C 0,0 km/h (0 Bft) 0,00 %
01.07.2015 06:00 14,7 C 94 % 1020,0 hPa 0,0 l/m 0,0 km/h (0 Bft) NO 50 5 min 0,000 mm 0,0 UV-I 122 W/m 13,7 C 14,7 C 0,0 km/h (0 Bft) 0,00 %
01.07.2015 06:05 15,3 C 93 % 1019,8 hPa 0,0 l/m 0,0 km/h (0 Bft) NO 43 5 min 0,000 mm 0,0 UV-I 140 W/m 14,2 C 15,3 C 0,0 km/h (0 Bft) 0,00 %
01.07.2015 06:10 15,8 C 90 % 1019,8 hPa 0,0 l/m 0,0 km/h (0 Bft) NO 43 5 min 0,000 mm 0,0 UV-I 160 W/m 14,2 C 15,8 C 0,0 km/h (0 Bft) 0,00 %
01.07.2015 06:15 16,3 C 85 % 1019,6 hPa 0,0 l/m 0,0 km/h (0 Bft) NO 42 5 min 0,000 mm 0,0 UV-I 179 W/m 13,8 C 16,3 C 0,0 km/h (0 Bft) 0,00 %
01.07.2015 06:20 16,7 C 81 % 1019,7 hPa 0,0 l/m 0,0 km/h (0 Bft) NO 40 5 min 0,000 mm 0,0 UV-I 202 W/m 13,4 C 16,7 C 0,0 km/h (0 Bft) 0,00 %
01.07.2015 06:25 17,2 C 77 % 1019,7 hPa 0,0 l/m 0,0 km/h (0 Bft) NO 34 5 min 0,000 mm 1,0 UV-I 220 W/m 13,1 C 17,2 C 0,0 km/h (0 Bft) 0,00 %
01.07.2015 06:30 17,5 C 78 % 1019,9 hPa 0,0 l/m 0,0 km/h (0 Bft) N-NO 25 5 min 0,000 mm 1,0 UV-I 241 W/m 13,6 C 17,5 C 0,0 km/h (0 Bft) 0,00 %
01.07.2015 06:35 17,5 C 78 % 1019,9 hPa 0,0 l/m 0,0 km/h (0 Bft) N-NO 33 5 min 0,000 mm 1,0 UV-I 257 W/m 13,6 C 17,5 C 0,0 km/h (0 Bft) 0,00 %
01.07.2015 06:40 17,7 C 78 % 1019,7 hPa 0,0 l/m 0,0 km/h (0 Bft) N-NO 27 5 min 0,000 mm 1,0 UV-I 273 W/m 13,8 C 17,7 C 0,0 km/h (0 Bft) 0,00 %
01.07.2015 06:45 18,1 C 75 % 1019,8 hPa 0,0 l/m 0,0 km/h (0 Bft) N-NO 33 5 min 0,000 mm 1,0 UV-I 290 W/m 13,6 C 18,1 C 0,0 km/h (0 Bft) 0,00 %
01.07.2015 06:50 18,9 C 73 % 1019,6 hPa 0,0 l/m 0,0 km/h (0 Bft) NO 34 5 min 0,000 mm 1,0 UV-I 306 W/m 13,9 C 18,9 C 0,0 km/h (0 Bft) 0,00 %
01.07.2015 06:55 19,5 C 72 % 1019,5 hPa 0,0 l/m 0,0 km/h (0 Bft) O-NO 65 5 min 0,000 mm 1,0 UV-I 323 W/m 14,3 C 19,5 C 0,0 km/h (0 Bft) 0,00 %
01.07.2015 07:00 19,7 C 72 % 1019,4 hPa 0,0 l/m 0,0 km/h (0 Bft) NO 36 5 min 0,000 mm 1,0 UV-I 340 W/m 14,5 C 19,7 C 0,0 km/h (0 Bft) 0,00 %
01.07.2015 07:05 19,6 C 71 % 1019,6 hPa 0,0 l/m 0,0 km/h (0 Bft) O-NO 68 5 min 0,000 mm 1,0 UV-I 353 W/m 14,2 C 19,6 C 0,0 km/h (0 Bft) 0,00 %
01.07.2015 07:10 19,5 C 72 % 1019,5 hPa 0,0 l/m 4,3 km/h (1 Bft) O 98 5 min 0,000 mm 1,0 UV-I 365 W/m 14,3 C 19,5 C 7,9 km/h (2 Bft) 0,00 %
01.07.2015 07:15 19,5 C 73 % 1019,5 hPa 0,0 l/m 0,0 km/h (0 Bft) O-NO 70 5 min 0,000 mm 1,0 UV-I 377 W/m 14,5 C 19,5 C 0,0 km/h (0 Bft) 0,00 %
01.07.2015 07:20 19,4 C 71 % 1019,5 hPa 0,0 l/m 0,7 km/h (0 Bft) O-NO 60 5 min 0,000 mm 1,0 UV-I 386 W/m 14,0 C 19,4 C 4,0 km/h (1 Bft) 0,00 %
01.07.2015 07:25 19,4 C 72 % 1019,6 hPa 0,0 l/m 0,7 km/h (0 Bft) O-NO 66 5 min 0,000 mm 1,0 UV-I 396 W/m 14,2 C 19,4 C 4,0 km/h (1 Bft) 0,00 %
01.07.2015 07:30 19,4 C 72 % 1019,7 hPa 0,0 l/m 2,9 km/h (1 Bft) NO 56 5 min 0,000 mm 1,0 UV-I 402 W/m 14,2 C 19,4 C 4,0 km/h (1 Bft) 0,00 %
01.07.2015 07:35 19,4 C 72 % 1019,6 hPa 0,0 l/m 0,4 km/h (0 Bft) O-NO 70 5 min 0,000 mm 1,0 UV-I 413 W/m 14,2 C 19,4 C 4,0 km/h (1 Bft) 0,00 %
01.07.2015 07:40 19,4 C 71 % 1019,8 hPa 0,0 l/m 4,0 km/h (1 Bft) O-NO 75 5 min 0,000 mm 1,0 UV-I 418 W/m 14,0 C 19,4 C 4,0 km/h (1 Bft) 0,00 %
01.07.2015 07:45 19,5 C 71 % 1019,7 hPa 0,0 l/m 0,4 km/h (0 Bft) NO 45 5 min 0,000 mm 1,0 UV-I 423 W/m 14,1 C 19,5 C 4,0 km/h (1 Bft) 0,00 %
01.07.2015 07:50 19,6 C 72 % 1019,8 hPa 0,0 l/m 0,4 km/h (0 Bft) N-NO 21 5 min 0,000 mm 1,0 UV-I 431 W/m 14,4 C 19,6 C 4,0 km/h (1 Bft) 0,00 %
01.07.2015 07:55 19,8 C 69 % 1019,7 hPa 0,0 l/m 0,4 km/h (0 Bft) N 1 5 min 0,000 mm 1,0 UV-I 439 W/m 13,9 C 19,8 C 4,0 km/h (1 Bft) 0,00 %
01.07.2015 08:00 20,2 C 68 % 1019,8 hPa 0,0 l/m 3,2 km/h (1 Bft) O-NO 72 5 min 0,000 mm 1,0 UV-I 444 W/m 14,1 C 20,2 C 4,0 km/h (1 Bft) 0,00 %
01.07.2015 08:05 20,4 C 66 % 1019,8 hPa 0,0 l/m 0,0 km/h (0 Bft) N-NW 344 5 min 0,000 mm 1,0 UV-I 452 W/m 13,8 C 20,4 C 0,0 km/h (0 Bft) 0,00 %
01.07.2015 08:10 20,4 C 67 % 1019,8 hPa 0,0 l/m 2,9 km/h (1 Bft) O 85 5 min 0,000 mm 1,0 UV-I 436 W/m 14,1 C 20,4 C 4,0 km/h (1 Bft) 0,00 %
01.07.2015 08:15 20,6 C 65 % 1019,8 hPa 0,0 l/m 0,4 km/h (0 Bft) NO 51 5 min 0,000 mm 1,0 UV-I 462 W/m 13,8 C 20,6 C 4,0 km/h (1 Bft) 0,00 %
01.07.2015 08:20 21,0 C 61 % 1019,8 hPa 0,0 l/m 2,9 km/h (1 Bft) NO 54 5 min 0,000 mm 2,0 UV-I 471 W/m 13,2 C 21,0 C 4,0 km/h (1 Bft) 0,00 %
01.07.2015 08:25 21,2 C 63 % 1019,6 hPa 0,0 l/m 0,0 km/h (0 Bft) O-NO 67 5 min 0,000 mm 2,0 UV-I 477 W/m 13,9 C 21,2 C 0,0 km/h (0 Bft) 0,00 %
01.07.2015 08:30 21,4 C 62 % 1019,6 hPa 0,0 l/m 2,2 km/h (1 Bft) O 82 5 min 0,000 mm 2,0 UV-I 484 W/m 13,8 C 21,4 C 4,0 km/h (1 Bft) 0,00 %
01.07.2015 08:35 21,7 C 61 % 1019,7 hPa 0,0 l/m 0,0 km/h (0 Bft) O-NO 65 5 min 0,000 mm 2,0 UV-I 492 W/m 13,8 C 21,7 C 0,0 km/h (0 Bft) 0,00 %
01.07.2015 08:40 21,9 C 62 % 1019,6 hPa 0,0 l/m 2,9 km/h (1 Bft) O 95 5 min 0,000 mm 2,0 UV-I 497 W/m 14,3 C 21,9 C 4,0 km/h (1 Bft) 0,00 %
01.07.2015 08:45 22,1 C 61 % 1019,5 hPa 0,0 l/m 0,4 km/h (0 Bft) N 351 5 min 0,000 mm 2,0 UV-I 508 W/m 14,2 C 22,1 C 4,0 km/h (1 Bft) 0,00 %
01.07.2015 08:50 22,4 C 62 % 1019,6 hPa 0,0 l/m 0,0 km/h (0 Bft) N-NO 31 5 min 0,000 mm 2,0 UV-I 516 W/m 14,8 C 22,4 C 0,0 km/h (0 Bft) 0,00 %
01.07.2015 08:55 22,4 C 60 % 1019,5 hPa 0,0 l/m 0,4 km/h (0 Bft) N 355 5 min 0,000 mm 2,0 UV-I 524 W/m 14,2 C 22,4 C 4,0 km/h (1 Bft) 0,00 %
01.07.2015 09:00 22,3 C 59 % 1019,7 hPa 0,0 l/m 0,0 km/h (0 Bft) O-NO 58 5 min 0,000 mm 2,0 UV-I 531 W/m 13,9 C 22,3 C 0,0 km/h (0 Bft) 0,00 %
01.07.2015 09:05 22,5 C 58 % 1019,6 hPa 0,0 l/m 0,0 km/h (0 Bft) N 354 5 min 0,000 mm 2,0 UV-I 539 W/m 13,8 C 22,5 C 0,0 km/h (0 Bft) 0,00 %
01.07.2015 09:10 22,9 C 55 % 1019,5 hPa 0,0 l/m 0,4 km/h (0 Bft) O-NO 74 5 min 0,000 mm 2,0 UV-I 550 W/m 13,4 C 22,9 C 4,0 km/h (1 Bft) 0,00 %
01.07.2015 09:15 23,1 C 56 % 1019,6 hPa 0,0 l/m 0,0 km/h (0 Bft) O-NO 57 5 min 0,000 mm 2,0 UV-I 555 W/m 13,8 C 23,1 C 0,0 km/h (0 Bft) 0,00 %
01.07.2015 09:20 23,4 C 55 % 1019,6 hPa 0,0 l/m 0,4 km/h (0 Bft) O-SO 112 5 min 0,000 mm 2,0 UV-I 563 W/m 13,8 C 23,4 C 4,0 km/h (1 Bft) 0,00 %
01.07.2015 09:25 23,6 C 55 % 1019,5 hPa 0,0 l/m 1,4 km/h (1 Bft) NO 37 5 min 0,000 mm 2,0 UV-I 572 W/m 14,0 C 23,6 C 4,0 km/h (1 Bft) 0,00 %
01.07.2015 09:30 23,7 C 56 % 1019,5 hPa 0,0 l/m 0,0 km/h (0 Bft) O 93 5 min 0,000 mm 2,0 UV-I 582 W/m 14,4 C 23,7 C 0,0 km/h (0 Bft) 0,00 %
01.07.2015 09:35 23,9 C 54 % 1019,4 hPa 0,0 l/m 0,0 km/h (0 Bft) NO 47 5 min 0,000 mm 2,0 UV-I 594 W/m 14,0 C 23,9 C 0,0 km/h (0 Bft) 0,00 %
01.07.2015 09:40 24,1 C 52 % 1019,3 hPa 0,0 l/m 0,7 km/h (0 Bft) O-NO 78 5 min 0,000 mm 2,0 UV-I 605 W/m 13,6 C 24,1 C 4,0 km/h (1 Bft) 0,00 %
01.07.2015 09:45 24,1 C 56 % 1019,4 hPa 0,0 l/m 0,7 km/h (0 Bft) N-NW 346 5 min 0,000 mm 3,0 UV-I 613 W/m 14,8 C 24,1 C 4,0 km/h (1 Bft) 0,00 %
01.07.2015 09:50 23,9 C 54 % 1019,5 hPa 0,0 l/m 6,5 km/h (2 Bft) O-SO 103 5 min 0,000 mm 3,0 UV-I 621 W/m 14,0 C 23,9 C 7,9 km/h (2 Bft) 0,00 %
01.07.2015 09:55 23,9 C 54 % 1019,4 hPa 0,0 l/m 1,8 km/h (1 Bft) NO 48 5 min 0,000 mm 3,0 UV-I 632 W/m 14,0 C 23,9 C 4,0 km/h (1 Bft) 0,00 %
01.07.2015 10:00 23,8 C 54 % 1019,5 hPa 0,0 l/m 0,0 km/h (0 Bft) NO 45 5 min 0,000 mm 3,0 UV-I 641 W/m 13,9 C 23,8 C 0,0 km/h (0 Bft) 0,00 %
01.07.2015 10:05 23,7 C 52 % 1019,6 hPa 0,0 l/m 4,0 km/h (1 Bft) O-NO 73 5 min 0,000 mm 3,0 UV-I 652 W/m 13,2 C 23,7 C 7,9 km/h (2 Bft) 0,00 %
01.07.2015 10:10 24,0 C 53 % 1019,4 hPa 0,0 l/m 0,4 km/h (0 Bft) O 82 5 min 0,000 mm 3,0 UV-I 659 W/m 13,8 C 24,0 C 4,0 km/h (1 Bft) 0,00 %
01.07.2015 10:15 24,2 C 53 % 1019,4 hPa 0,0 l/m 7,2 km/h (2 Bft) O-SO 120 5 min 0,000 mm 3,0 UV-I 670 W/m 14,0 C 24,0 C 7,9 km/h (2 Bft) 0,00 %
01.07.2015 10:20 24,4 C 52 % 1019,4 hPa 0,0 l/m 0,7 km/h (0 Bft) O-NO 71 5 min 0,000 mm 3,0 UV-I 678 W/m 13,9 C 24,4 C 4,0 km/h (1 Bft) 0,00 %
01.07.2015 10:25 24,4 C 54 % 1019,3 hPa 0,0 l/m 0,0 km/h (0 Bft) O-NO 60 5 min 0,000 mm 3,0 UV-I 685 W/m 14,5 C 24,4 C 0,0 km/h (0 Bft) 0,00 %
01.07.2015 10:30 24,4 C 54 % 1019,3 hPa 0,0 l/m 7,9 km/h (2 Bft) O 100 5 min 0,000 mm 3,0 UV-I 700 W/m 14,5 C 24,0 C 11,9 km/h (2 Bft) 0,00 %
01.07.2015 10:35 24,6 C 50 % 1019,3 hPa 0,0 l/m 4,3 km/h (1 Bft) O-SO 116 5 min 0,000 mm 3,0 UV-I 709 W/m 13,5 C 24,6 C 7,9 km/h (2 Bft) 0,00 %
01.07.2015 10:40 25,0 C 50 % 1019,2 hPa 0,0 l/m 0,4 km/h (0 Bft) N-NO 18 5 min 0,000 mm 4,0 UV-I 714 W/m 13,8 C 25,0 C 4,0 km/h (1 Bft) 0,00 %
01.07.2015 10:45 25,0 C 52 % 1019,3 hPa 0,0 l/m 2,9 km/h (1 Bft) N-NO 19 5 min 0,000 mm 4,0 UV-I 722 W/m 14,4 C 25,0 C 4,0 km/h (1 Bft) 0,00 %
01.07.2015 10:50 24,7 C 51 % 1019,2 hPa 0,0 l/m 4,7 km/h (1 Bft) NO 54 5 min 0,000 mm 4,0 UV-I 726 W/m 13,9 C 24,7 C 7,9 km/h (2 Bft) 0,00 %
01.07.2015 10:55 24,6 C 52 % 1019,3 hPa 0,0 l/m 1,8 km/h (1 Bft) O 80 5 min 0,000 mm 4,0 UV-I 730 W/m 14,1 C 24,6 C 4,0 km/h (1 Bft) 0,00 %
01.07.2015 11:00 24,9 C 51 % 1019,3 hPa 0,0 l/m 1,4 km/h (1 Bft) NO 48 5 min 0,000 mm 4,0 UV-I 741 W/m 14,1 C 24,9 C 4,0 km/h (1 Bft) 0,00 %
01.07.2015 11:05 25,2 C 50 % 1019,4 hPa 0,0 l/m 3,2 km/h (1 Bft) O-NO 76 5 min 0,000 mm 4,0 UV-I 746 W/m 14,0 C 25,2 C 11,9 km/h (2 Bft) 0,00 %
01.07.2015 11:10 25,2 C 49 % 1019,3 hPa 0,0 l/m 4,0 km/h (1 Bft) O-NO 73 5 min 0,000 mm 4,0 UV-I 758 W/m 13,7 C 25,2 C 7,9 km/h (2 Bft) 0,00 %
01.07.2015 11:15 25,3 C 50 % 1019,2 hPa 0,0 l/m 2,9 km/h (1 Bft) O 80 5 min 0,000 mm 4,0 UV-I 765 W/m 14,1 C 25,3 C 7,9 km/h (2 Bft) 0,00 %
01.07.2015 11:20 25,4 C 49 % 1018,9 hPa 0,0 l/m 1,8 km/h (1 Bft) O-NO 61 5 min 0,000 mm 4,0 UV-I 769 W/m 13,9 C 25,4 C 4,0 km/h (1 Bft) 0,00 %
01.07.2015 11:25 25,5 C 50 % 1019,1 hPa 0,0 l/m 2,2 km/h (1 Bft) NO 39 5 min 0,000 mm 4,0 UV-I 781 W/m 14,3 C 25,5 C 4,0 km/h (1 Bft) 0,00 %
01.07.2015 11:30 25,6 C 49 % 1019,0 hPa 0,0 l/m 7,2 km/h (2 Bft) O 85 5 min 0,000 mm 5,0 UV-I 789 W/m 14,1 C 25,4 C 7,9 km/h (2 Bft) 0,00 %
01.07.2015 11:35 25,7 C 49 % 1019,1 hPa 0,0 l/m 1,4 km/h (1 Bft) N-NO 28 5 min 0,000 mm 5,0 UV-I 789 W/m 14,2 C 25,7 C 4,0 km/h (1 Bft) 0,00 %
01.07.2015 11:40 25,8 C 50 % 1019,1 hPa 0,0 l/m 6,5 km/h (2 Bft) NO 52 5 min 0,000 mm 5,0 UV-I 796 W/m 14,6 C 25,8 C 7,9 km/h (2 Bft) 0,00 %
01.07.2015 11:45 25,8 C 49 % 1018,8 hPa 0,0 l/m 7,2 km/h (2 Bft) O-NO 73 5 min 0,000 mm 5,0 UV-I 799 W/m 14,3 C 25,6 C 11,9 km/h (2 Bft) 0,00 %
01.07.2015 11:50 25,9 C 49 % 1018,9 hPa 0,0 l/m 5,4 km/h (1 Bft) O-SO 108 5 min 0,000 mm 5,0 UV-I 807 W/m 14,4 C 25,9 C 7,9 km/h (2 Bft) 0,00 %
01.07.2015 11:55 26,0 C 47 % 1018,8 hPa 0,0 l/m 0,0 km/h (0 Bft) N-NW 341 5 min 0,000 mm 5,0 UV-I 809 W/m 13,8 C 26,0 C 0,0 km/h (0 Bft) 0,00 %
01.07.2015 12:00 26,1 C 47 % 1018,8 hPa 0,0 l/m 0,7 km/h (0 Bft) NO 46 5 min 0,000 mm 5,0 UV-I 816 W/m 13,9 C 26,1 C 4,0 km/h (1 Bft) 0,00 %
01.07.2015 12:05 26,2 C 47 % 1018,8 hPa 0,0 l/m 4,7 km/h (1 Bft) O 81 5 min 0,000 mm 5,0 UV-I 819 W/m 14,0 C 26,2 C 7,9 km/h (2 Bft) 0,00 %
01.07.2015 12:10 26,2 C 48 % 1018,7 hPa 0,0 l/m 2,9 km/h (1 Bft) N 349 5 min 0,000 mm 5,0 UV-I 826 W/m 14,3 C 26,2 C 4,0 km/h (1 Bft) 0,00 %
01.07.2015 12:15 26,1 C 47 % 1018,9 hPa 0,0 l/m 1,8 km/h (1 Bft) O 91 5 min 0,000 mm 5,0 UV-I 834 W/m 13,9 C 26,1 C 4,0 km/h (1 Bft) 0,00 %
01.07.2015 12:20 26,1 C 45 % 1018,6 hPa 0,0 l/m 0,7 km/h (0 Bft) O-SO 107 5 min 0,000 mm 5,0 UV-I 838 W/m 13,2 C 26,1 C 4,0 km/h (1 Bft) 0,00 %
01.07.2015 12:25 26,4 C 45 % 1018,6 hPa 0,0 l/m 6,8 km/h (2 Bft) O 81 5 min 0,000 mm 5,0 UV-I 842 W/m 13,5 C 26,3 C 11,9 km/h (2 Bft) 0,00 %
01.07.2015 12:30 26,6 C 43 % 1018,5 hPa 0,0 l/m 5,8 km/h (2 Bft) O-NO 77 5 min 0,000 mm 5,0 UV-I 847 W/m 13,0 C 26,6 C 7,9 km/h (2 Bft) 0,00 %
01.07.2015 12:35 26,6 C 44 % 1018,3 hPa 0,0 l/m 5,4 km/h (1 Bft) N 352 5 min 0,000 mm 5,0 UV-I 840 W/m 13,3 C 26,6 C 7,9 km/h (2 Bft) 0,00 %
01.07.2015 12:40 26,4 C 42 % 1018,5 hPa 0,0 l/m 5,4 km/h (1 Bft) O-SO 114 5 min 0,000 mm 6,0 UV-I 851 W/m 12,4 C 26,4 C 7,9 km/h (2 Bft) 0,00 %
01.07.2015 12:45 26,3 C 42 % 1018,6 hPa 0,0 l/m 1,8 km/h (1 Bft) O-NO 62 5 min 0,000 mm 6,0 UV-I 859 W/m 12,3 C 26,3 C 4,0 km/h (1 Bft) 0,00 %
01.07.2015 12:50 26,4 C 40 % 1018,5 hPa 0,0 l/m 5,8 km/h (2 Bft) O-SO 106 5 min 0,000 mm 6,0 UV-I 861 W/m 11,7 C 26,4 C 7,9 km/h (2 Bft) 0,00 %
01.07.2015 12:55 26,6 C 45 % 1018,2 hPa 0,0 l/m 2,2 km/h (1 Bft) NO 51 5 min 0,000 mm 6,0 UV-I 863 W/m 13,7 C 26,6 C 7,9 km/h (2 Bft) 0,00 %
01.07.2015 13:00 26,5 C 44 % 1018,2 hPa 0,0 l/m 6,8 km/h (2 Bft) O-NO 67 5 min 0,000 mm 6,0 UV-I 869 W/m 13,2 C 26,4 C 7,9 km/h (2 Bft) 0,00 %
01.07.2015 13:05 26,6 C 40 % 1018,3 hPa 0,0 l/m 10,4 km/h (2 Bft) O-SO 119 5 min 0,000 mm 5,0 UV-I 875 W/m 11,9 C 25,9 C 15,8 km/h (3 Bft) 0,00 %
01.07.2015 13:10 26,7 C 42 % 1018,2 hPa 0,0 l/m 5,8 km/h (2 Bft) O-NO 62 5 min 0,000 mm 5,0 UV-I 878 W/m 12,7 C 26,7 C 7,9 km/h (2 Bft) 0,00 %
01.07.2015 13:15 26,6 C 43 % 1018,2 hPa 0,0 l/m 4,0 km/h (1 Bft) N-NO 25 5 min 0,000 mm 5,0 UV-I 879 W/m 13,0 C 26,6 C 7,9 km/h (2 Bft) 0,00 %
01.07.2015 13:20 26,5 C 42 % 1018,2 hPa 0,0 l/m 4,7 km/h (1 Bft) NO 36 5 min 0,000 mm 5,0 UV-I 883 W/m 12,5 C 26,5 C 7,9 km/h (2 Bft) 0,00 %
01.07.2015 13:25 26,7 C 42 % 1017,9 hPa 0,0 l/m 5,4 km/h (1 Bft) O-SO 106 5 min 0,000 mm 5,0 UV-I 889 W/m 12,7 C 26,7 C 15,8 km/h (3 Bft) 0,00 %
01.07.2015 13:30 26,8 C 45 % 1018,0 hPa 0,0 l/m 4,3 km/h (1 Bft) O-SO 112 5 min 0,000 mm 5,0 UV-I 864 W/m 13,9 C 26,8 C 7,9 km/h (2 Bft) 0,00 %
01.07.2015 13:35 26,9 C 43 % 1018,1 hPa 0,0 l/m 1,8 km/h (1 Bft) NO 40 5 min 0,000 mm 5,0 UV-I 902 W/m 13,2 C 26,9 C 4,0 km/h (1 Bft) 0,00 %
01.07.2015 13:40 27,1 C 42 % 1017,9 hPa 0,0 l/m 2,2 km/h (1 Bft) N-NW 348 5 min 0,000 mm 5,0 UV-I 904 W/m 13,1 C 27,1 C 4,0 km/h (1 Bft) 0,00 %
01.07.2015 13:45 27,2 C 38 % 1018,0 hPa 0,0 l/m 4,7 km/h (1 Bft) O-SO 117 5 min 0,000 mm 5,0 UV-I 904 W/m 11,6 C 27,2 C 7,9 km/h (2 Bft) 0,00 %
01.07.2015 13:50 27,2 C 40 % 1017,8 hPa 0,0 l/m 0,7 km/h (0 Bft) NO 47 5 min 0,000 mm 5,0 UV-I 905 W/m 12,4 C 27,2 C 4,0 km/h (1 Bft) 0,00 %
01.07.2015 13:55 27,3 C 39 % 1017,7 hPa 0,0 l/m 5,4 km/h (1 Bft) O 88 5 min 0,000 mm 5,0 UV-I 907 W/m 12,1 C 27,3 C 7,9 km/h (2 Bft) 0,00 %
01.07.2015 14:00 27,5 C 41 % 1017,8 hPa 0,0 l/m 4,7 km/h (1 Bft) N 351 5 min 0,000 mm 5,0 UV-I 913 W/m 13,1 C 27,5 C 7,9 km/h (2 Bft) 0,00 %
01.07.2015 14:05 27,5 C 35 % 1017,6 hPa 0,0 l/m 1,8 km/h (1 Bft) NO 52 5 min 0,000 mm 5,0 UV-I 916 W/m 10,7 C 27,5 C 4,0 km/h (1 Bft) 0,00 %
01.07.2015 14:10 27,3 C 38 % 1017,8 hPa 0,0 l/m 9,7 km/h (2 Bft) SO 129 5 min 0,000 mm 5,0 UV-I 923 W/m 11,7 C 26,7 C 11,9 km/h (2 Bft) 0,00 %
01.07.2015 14:15 27,4 C 38 % 1017,7 hPa 0,0 l/m 6,5 km/h (2 Bft) O 98 5 min 0,000 mm 5,0 UV-I 927 W/m 11,8 C 27,4 C 7,9 km/h (2 Bft) 0,00 %
01.07.2015 14:20 27,6 C 37 % 1017,7 hPa 0,0 l/m 4,3 km/h (1 Bft) O 89 5 min 0,000 mm 5,0 UV-I 926 W/m 11,6 C 27,6 C 7,9 km/h (2 Bft) 0,00 %
01.07.2015 14:25 27,8 C 37 % 1017,5 hPa 0,0 l/m 4,7 km/h (1 Bft) O 88 5 min 0,000 mm 5,0 UV-I 936 W/m 11,8 C 27,8 C 7,9 km/h (2 Bft) 0,00 %
01.07.2015 14:30 27,8 C 37 % 1017,6 hPa 0,0 l/m 7,9 km/h (2 Bft) O-NO 60 5 min 0,000 mm 5,0 UV-I 929 W/m 11,8 C 27,6 C 11,9 km/h (2 Bft) 0,00 %
01.07.2015 14:35 27,8 C 39 % 1017,4 hPa 0,0 l/m 3,2 km/h (1 Bft) O 79 5 min 0,000 mm 5,0 UV-I 940 W/m 12,6 C 27,8 C 7,9 km/h (2 Bft) 0,00 %
01.07.2015 14:40 27,8 C 39 % 1017,4 hPa 0,0 l/m 15,8 km/h (3 Bft) O 81 5 min 0,000 mm 5,0 UV-I 933 W/m 12,6 C 26,6 C 19,8 km/h (3 Bft) 0,00 %
01.07.2015 14:45 27,8 C 36 % 1017,4 hPa 0,0 l/m 2,9 km/h (1 Bft) N-NO 14 5 min 0,000 mm 5,0 UV-I 940 W/m 11,3 C 27,8 C 4,0 km/h (1 Bft) 0,00 %
01.07.2015 14:50 27,6 C 37 % 1017,3 hPa 0,0 l/m 4,7 km/h (1 Bft) O 100 5 min 0,000 mm 5,0 UV-I 942 W/m 11,6 C 27,6 C 7,9 km/h (2 Bft) 0,00 %
01.07.2015 14:55 27,6 C 37 % 1017,5 hPa 0,0 l/m 0,4 km/h (0 Bft) NO 36 5 min 0,000 mm 5,0 UV-I 946 W/m 11,6 C 27,6 C 4,0 km/h (1 Bft) 0,00 %
01.07.2015 15:00 27,9 C 35 % 1017,4 hPa 0,0 l/m 0,0 km/h (0 Bft) N-NO 25 5 min 0,000 mm 5,0 UV-I 945 W/m 11,0 C 27,9 C 0,0 km/h (0 Bft) 0,00 %
01.07.2015 15:05 28,1 C 38 % 1017,2 hPa 0,0 l/m 4,7 km/h (1 Bft) O 101 5 min 0,000 mm 5,0 UV-I 944 W/m 12,4 C 28,1 C 7,9 km/h (2 Bft) 0,00 %
01.07.2015 15:10 28,1 C 37 % 1017,2 hPa 0,0 l/m 1,8 km/h (1 Bft) N-NO 23 5 min 0,000 mm 5,0 UV-I 944 W/m 12,0 C 28,1 C 4,0 km/h (1 Bft) 0,00 %
01.07.2015 15:15 28,1 C 37 % 1017,3 hPa 0,0 l/m 2,9 km/h (1 Bft) SO 137 5 min 0,000 mm 4,0 UV-I 935 W/m 12,0 C 28,1 C 4,0 km/h (1 Bft) 0,00 %
01.07.2015 15:20 28,1 C 38 % 1017,2 hPa 0,0 l/m 0,7 km/h (0 Bft) N 352 5 min 0,000 mm 4,0 UV-I 947 W/m 12,4 C 28,1 C 4,0 km/h (1 Bft) 0,00 %
01.07.2015 15:25 28,1 C 37 % 1017,4 hPa 0,0 l/m 2,9 km/h (1 Bft) NO 43 5 min 0,000 mm 4,0 UV-I 938 W/m 12,0 C 28,1 C 4,0 km/h (1 Bft) 0,00 %
01.07.2015 15:30 28,0 C 38 % 1017,2 hPa 0,0 l/m 3,2 km/h (1 Bft) NO 44 5 min 0,000 mm 4,0 UV-I 942 W/m 12,3 C 28,0 C 7,9 km/h (2 Bft) 0,00 %
01.07.2015 15:35 28,0 C 38 % 1017,3 hPa 0,0 l/m 4,3 km/h (1 Bft) O-NO 72 5 min 0,000 mm 4,0 UV-I 939 W/m 12,3 C 28,0 C 7,9 km/h (2 Bft) 0,00 %
01.07.2015 15:40 28,0 C 36 % 1017,4 hPa 0,0 l/m 9,4 km/h (2 Bft) O 92 5 min 0,000 mm 4,0 UV-I 937 W/m 11,5 C 27,6 C 11,9 km/h (2 Bft) 0,00 %
01.07.2015 15:45 28,1 C 37 % 1017,2 hPa 0,0 l/m 2,9 km/h (1 Bft) NO 54 5 min 0,000 mm 4,0 UV-I 924 W/m 12,0 C 28,1 C 7,9 km/h (2 Bft) 0,00 %
01.07.2015 15:50 28,2 C 37 % 1017,1 hPa 0,0 l/m 0,4 km/h (0 Bft) N-NO 14 5 min 0,000 mm 4,0 UV-I 926 W/m 12,1 C 28,2 C 4,0 km/h (1 Bft) 0,00 %
01.07.2015 15:55 28,1 C 39 % 1017,2 hPa 0,0 l/m 10,4 km/h (2 Bft) O-SO 114 5 min 0,000 mm 4,0 UV-I 922 W/m 12,8 C 27,5 C 11,9 km/h (2 Bft) 0,00 %
01.07.2015 16:00 28,2 C 38 % 1016,9 hPa 0,0 l/m 1,4 km/h (1 Bft) O-NO 69 5 min 0,000 mm 4,0 UV-I 920 W/m 12,5 C 28,2 C 4,0 km/h (1 Bft) 0,00 %
01.07.2015 16:05 28,2 C 36 % 1017,2 hPa 0,0 l/m 6,5 km/h (2 Bft) O 93 5 min 0,000 mm 4,0 UV-I 916 W/m 11,7 C 28,2 C 7,9 km/h (2 Bft) 0,00 %
01.07.2015 16:10 28,0 C 38 % 1017,2 hPa 0,0 l/m 0,4 km/h (0 Bft) NO 54 5 min 0,000 mm 4,0 UV-I 916 W/m 12,3 C 28,0 C 4,0 km/h (1 Bft) 0,00 %
01.07.2015 16:15 28,0 C 39 % 1017,1 hPa 0,0 l/m 2,9 km/h (1 Bft) O-NO 64 5 min 0,000 mm 4,0 UV-I 918 W/m 12,7 C 28,0 C 4,0 km/h (1 Bft) 0,00 %
01.07.2015 16:20 28,1 C 35 % 1017,2 hPa 0,0 l/m 2,9 km/h (1 Bft) O-NO 68 5 min 0,000 mm 3,0 UV-I 916 W/m 11,2 C 28,1 C 4,0 km/h (1 Bft) 0,00 %
01.07.2015 16:25 28,1 C 36 % 1017,1 hPa 0,0 l/m 0,0 km/h (0 Bft) N-NO 14 5 min 0,000 mm 3,0 UV-I 902 W/m 11,6 C 28,1 C 0,0 km/h (0 Bft) 0,00 %
01.07.2015 16:30 28,2 C 35 % 1016,8 hPa 0,0 l/m 11,5 km/h (2 Bft) O 90 5 min 0,000 mm 3,0 UV-I 896 W/m 11,3 C 27,5 C 15,8 km/h (3 Bft) 0,00 %
01.07.2015 16:35 28,2 C 35 % 1016,9 hPa 0,0 l/m 0,7 km/h (0 Bft) O-NO 72 5 min 0,000 mm 3,0 UV-I 898 W/m 11,3 C 28,2 C 4,0 km/h (1 Bft) 0,00 %
01.07.2015 16:40 28,2 C 35 % 1016,9 hPa 0,0 l/m 4,3 km/h (1 Bft) O-NO 57 5 min 0,000 mm 3,0 UV-I 887 W/m 11,3 C 28,2 C 7,9 km/h (2 Bft) 0,00 %
01.07.2015 16:45 28,4 C 33 % 1016,8 hPa 0,0 l/m 2,2 km/h (1 Bft) NO 50 5 min 0,000 mm 3,0 UV-I 885 W/m 10,6 C 28,4 C 4,0 km/h (1 Bft) 0,00 %
01.07.2015 16:50 28,5 C 34 % 1016,9 hPa 0,0 l/m 4,7 km/h (1 Bft) O 101 5 min 0,000 mm 3,0 UV-I 876 W/m 11,1 C 28,5 C 11,9 km/h (2 Bft) 0,00 %
01.07.2015 16:55 28,4 C 35 % 1016,7 hPa 0,0 l/m 3,2 km/h (1 Bft) NO 48 5 min 0,000 mm 3,0 UV-I 859 W/m 11,4 C 28,4 C 7,9 km/h (2 Bft) 0,00 %
01.07.2015 17:00 28,2 C 33 % 1016,7 hPa 0,0 l/m 4,3 km/h (1 Bft) NO 34 5 min 0,000 mm 3,0 UV-I 848 W/m 10,4 C 28,2 C 7,9 km/h (2 Bft) 0,00 %
01.07.2015 17:05 28,1 C 34 % 1016,9 hPa 0,0 l/m 2,9 km/h (1 Bft) NO 47 5 min 0,000 mm 2,0 UV-I 865 W/m 10,7 C 28,1 C 4,0 km/h (1 Bft) 0,00 %
01.07.2015 17:10 28,0 C 34 % 1016,8 hPa 0,0 l/m 4,3 km/h (1 Bft) SO 128 5 min 0,000 mm 2,0 UV-I 865 W/m 10,7 C 28,0 C 7,9 km/h (2 Bft) 0,00 %
01.07.2015 17:15 28,1 C 34 % 1016,7 hPa 0,0 l/m 4,3 km/h (1 Bft) NO 54 5 min 0,000 mm 2,0 UV-I 852 W/m 10,7 C 28,1 C 7,9 km/h (2 Bft) 0,00 %
01.07.2015 17:20 28,3 C 34 % 1016,7 hPa 0,0 l/m 11,9 km/h (2 Bft) O 99 5 min 0,000 mm 2,0 UV-I 839 W/m 10,9 C 27,6 C 15,8 km/h (3 Bft) 0,00 %
01.07.2015 17:25 28,2 C 35 % 1016,5 hPa 0,0 l/m 7,2 km/h (2 Bft) SO 136 5 min 0,000 mm 2,0 UV-I 840 W/m 11,3 C 28,1 C 11,9 km/h (2 Bft) 0,00 %
01.07.2015 17:30 28,1 C 35 % 1016,5 hPa 0,0 l/m 4,7 km/h (1 Bft) O 92 5 min 0,000 mm 2,0 UV-I 831 W/m 11,2 C 28,1 C 7,9 km/h (2 Bft) 0,00 %
01.07.2015 17:35 28,1 C 34 % 1016,5 hPa 0,0 l/m 4,7 km/h (1 Bft) O-NO 64 5 min 0,000 mm 2,0 UV-I 829 W/m 10,7 C 28,1 C 7,9 km/h (2 Bft) 0,00 %
01.07.2015 17:40 28,0 C 34 % 1016,8 hPa 0,0 l/m 0,0 km/h (0 Bft) O-NO 58 5 min 0,000 mm 2,0 UV-I 828 W/m 10,7 C 28,0 C 0,0 km/h (0 Bft) 0,00 %
01.07.2015 17:45 28,1 C 36 % 1016,5 hPa 0,0 l/m 0,0 km/h (0 Bft) O-NO 59 5 min 0,000 mm 1,0 UV-I 815 W/m 11,6 C 28,1 C 0,0 km/h (0 Bft) 0,00 %
01.07.2015 17:50 28,1 C 36 % 1016,7 hPa 0,0 l/m 1,4 km/h (1 Bft) N 354 5 min 0,000 mm 1,0 UV-I 812 W/m 11,6 C 28,1 C 4,0 km/h (1 Bft) 0,00 %
01.07.2015 17:55 28,1 C 35 % 1016,5 hPa 0,0 l/m 4,0 km/h (1 Bft) O 85 5 min 0,000 mm 1,0 UV-I 796 W/m 11,2 C 28,1 C 7,9 km/h (2 Bft) 0,00 %
01.07.2015 18:00 28,2 C 38 % 1016,5 hPa 0,0 l/m 13,3 km/h (3 Bft) O 79 5 min 0,000 mm 1,0 UV-I 780 W/m 12,5 C 27,3 C 15,8 km/h (3 Bft) 0,00 %
01.07.2015 18:05 28,3 C 36 % 1016,5 hPa 0,0 l/m 8,3 km/h (2 Bft) O-SO 123 5 min 0,000 mm 1,0 UV-I 764 W/m 11,8 C 28,0 C 11,9 km/h (2 Bft) 0,00 %
01.07.2015 18:10 28,2 C 35 % 1016,5 hPa 0,0 l/m 0,4 km/h (0 Bft) W-SW 255 5 min 0,000 mm 1,0 UV-I 754 W/m 11,3 C 28,2 C 4,0 km/h (1 Bft) 0,00 %
01.07.2015 18:15 28,1 C 36 % 1016,3 hPa 0,0 l/m 0,0 km/h (0 Bft) O-SO 115 5 min 0,000 mm 1,0 UV-I 745 W/m 11,6 C 28,1 C 0,0 km/h (0 Bft) 0,00 %
01.07.2015 18:20 28,1 C 36 % 1016,5 hPa 0,0 l/m 10,8 km/h (2 Bft) O 93 5 min 0,000 mm 1,0 UV-I 728 W/m 11,6 C 27,5 C 11,9 km/h (2 Bft) 0,00 %
01.07.2015 18:25 28,1 C 38 % 1016,4 hPa 0,0 l/m 4,3 km/h (1 Bft) SO 140 5 min 0,000 mm 1,0 UV-I 712 W/m 12,4 C 28,1 C 7,9 km/h (2 Bft) 0,00 %
01.07.2015 18:30 28,0 C 38 % 1016,5 hPa 0,0 l/m 0,7 km/h (0 Bft) O 96 5 min 0,000 mm 1,0 UV-I 698 W/m 12,3 C 28,0 C 4,0 km/h (1 Bft) 0,00 %
01.07.2015 18:35 28,0 C 40 % 1016,5 hPa 0,0 l/m 0,0 km/h (0 Bft) O-NO 75 5 min 0,000 mm 1,0 UV-I 685 W/m 13,1 C 28,0 C 0,0 km/h (0 Bft) 0,00 %
01.07.2015 18:40 27,9 C 40 % 1016,6 hPa 0,0 l/m 5,4 km/h (1 Bft) O-SO 122 5 min 0,000 mm 1,0 UV-I 672 W/m 13,0 C 27,9 C 7,9 km/h (2 Bft) 0,00 %
01.07.2015 18:45 27,8 C 41 % 1016,5 hPa 0,0 l/m 9,0 km/h (2 Bft) SO 129 5 min 0,000 mm 1,0 UV-I 652 W/m 13,3 C 27,4 C 19,8 km/h (3 Bft) 0,00 %
01.07.2015 18:50 27,7 C 39 % 1016,4 hPa 0,0 l/m 1,8 km/h (1 Bft) NO 35 5 min 0,000 mm 1,0 UV-I 638 W/m 12,5 C 27,7 C 4,0 km/h (1 Bft) 0,00 %
01.07.2015 18:55 27,6 C 42 % 1016,5 hPa 0,0 l/m 7,9 km/h (2 Bft) O-SO 104 5 min 0,000 mm 1,0 UV-I 621 W/m 13,5 C 27,3 C 11,9 km/h (2 Bft) 0,00 %
01.07.2015 19:00 27,5 C 42 % 1016,6 hPa 0,0 l/m 4,0 km/h (1 Bft) S-SW 213 5 min 0,000 mm 1,0 UV-I 599 W/m 13,4 C 27,5 C 7,9 km/h (2 Bft) 0,00 %
01.07.2015 19:05 27,3 C 42 % 1016,7 hPa 0,0 l/m 0,4 km/h (0 Bft) NO 48 5 min 0,000 mm 1,0 UV-I 585 W/m 13,2 C 27,3 C 4,0 km/h (1 Bft) 0,00 %
01.07.2015 19:10 27,1 C 42 % 1016,6 hPa 0,0 l/m 0,0 km/h (0 Bft) NO 34 5 min 0,000 mm 1,0 UV-I 542 W/m 13,1 C 27,1 C 0,0 km/h (0 Bft) 0,00 %
01.07.2015 19:15 27,0 C 42 % 1016,8 hPa 0,0 l/m 0,4 km/h (0 Bft) O-NO 68 5 min 0,000 mm 1,0 UV-I 517 W/m 13,0 C 27,0 C 4,0 km/h (1 Bft) 0,00 %
01.07.2015 19:20 27,0 C 42 % 1016,7 hPa 0,0 l/m 0,7 km/h (0 Bft) O 93 5 min 0,000 mm 1,0 UV-I 488 W/m 13,0 C 27,0 C 4,0 km/h (1 Bft) 0,00 %
01.07.2015 19:25 27,0 C 42 % 1016,6 hPa 0,0 l/m 0,4 km/h (0 Bft) O 79 5 min 0,000 mm 1,0 UV-I 458 W/m 13,0 C 27,0 C 4,0 km/h (1 Bft) 0,00 %
01.07.2015 19:30 27,1 C 42 % 1016,5 hPa 0,0 l/m 1,4 km/h (1 Bft) O-SO 121 5 min 0,000 mm 1,0 UV-I 427 W/m 13,1 C 27,1 C 4,0 km/h (1 Bft) 0,00 %
01.07.2015 19:35 27,1 C 43 % 1016,7 hPa 0,0 l/m 0,7 km/h (0 Bft) SO 134 5 min 0,000 mm 1,0 UV-I 398 W/m 13,4 C 27,1 C 4,0 km/h (1 Bft) 0,00 %
01.07.2015 19:40 27,0 C 43 % 1016,7 hPa 0,0 l/m 2,2 km/h (1 Bft) O-SO 106 5 min 0,000 mm 1,0 UV-I 368 W/m 13,3 C 27,0 C 4,0 km/h (1 Bft) 0,00 %
01.07.2015 19:45 26,9 C 42 % 1016,8 hPa 0,0 l/m 2,9 km/h (1 Bft) O-NO 65 5 min 0,000 mm 1,0 UV-I 338 W/m 12,9 C 26,9 C 4,0 km/h (1 Bft) 0,00 %
01.07.2015 19:50 26,7 C 42 % 1016,8 hPa 0,0 l/m 2,9 km/h (1 Bft) O 100 5 min 0,000 mm 0,0 UV-I 307 W/m 12,7 C 26,7 C 4,0 km/h (1 Bft) 0,00 %
01.07.2015 19:55 26,5 C 44 % 1016,9 hPa 0,0 l/m 0,4 km/h (0 Bft) NO 49 5 min 0,000 mm 0,0 UV-I 272 W/m 13,2 C 26,5 C 4,0 km/h (1 Bft) 0,00 %
01.07.2015 20:00 26,2 C 44 % 1016,9 hPa 0,0 l/m 0,0 km/h (0 Bft) NO 40 5 min 0,000 mm 0,0 UV-I 237 W/m 13,0 C 26,2 C 0,0 km/h (0 Bft) 0,00 %
01.07.2015 20:05 26,1 C 45 % 1016,8 hPa 0,0 l/m 0,0 km/h (0 Bft) O-NO 69 5 min 0,000 mm 0,0 UV-I 201 W/m 13,2 C 26,1 C 0,0 km/h (0 Bft) 0,00 %
01.07.2015 20:10 26,0 C 47 % 1016,8 hPa 0,0 l/m 0,0 km/h (0 Bft) O-NO 78 5 min 0,000 mm 0,0 UV-I 167 W/m 13,8 C 26,0 C 0,0 km/h (0 Bft) 0,00 %
01.07.2015 20:15 25,8 C 47 % 1017,0 hPa 0,0 l/m 0,4 km/h (0 Bft) O 98 5 min 0,000 mm 0,0 UV-I 135 W/m 13,6 C 25,8 C 4,0 km/h (1 Bft) 0,00 %
01.07.2015 20:20 25,5 C 47 % 1016,9 hPa 0,0 l/m 0,0 km/h (0 Bft) NO 46 5 min 0,000 mm 0,0 UV-I 80 W/m 13,3 C 25,5 C 0,0 km/h (0 Bft) 0,00 %
01.07.2015 20:25 25,3 C 48 % 1017,3 hPa 0,0 l/m 0,0 km/h (0 Bft) NO 56 0 min 0,000 mm 0,0 UV-I 32 W/m 13,5 C 25,3 C 0,0 km/h (0 Bft) 0,00 %
01.07.2015 20:30 25,0 C 50 % 1017,3 hPa 0,0 l/m 0,0 km/h (0 Bft) O-NO 77 0 min 0,000 mm 0,0 UV-I 25 W/m 13,8 C 25,0 C 0,0 km/h (0 Bft) 0,00 %
01.07.2015 20:35 24,8 C 50 % 1017,3 hPa 0,0 l/m 0,0 km/h (0 Bft) O-NO 76 0 min 0,000 mm 0,0 UV-I 18 W/m 13,7 C 24,8 C 0,0 km/h (0 Bft) 0,00 %
01.07.2015 20:40 24,4 C 52 % 1017,3 hPa 0,0 l/m 0,4 km/h (0 Bft) O 84 0 min 0,000 mm 0,0 UV-I 9 W/m 13,9 C 24,4 C 4,0 km/h (1 Bft) 0,00 %
01.07.2015 20:45 24,0 C 54 % 1017,3 hPa 0,0 l/m 2,2 km/h (1 Bft) S 175 0 min 0,000 mm 0,0 UV-I 5 W/m 14,1 C 24,0 C 4,0 km/h (1 Bft) 0,00 %
01.07.2015 20:50 23,6 C 54 % 1017,5 hPa 0,0 l/m 0,0 km/h (0 Bft) O-SO 110 0 min 0,000 mm 0,0 UV-I 1 W/m 13,7 C 23,6 C 0,0 km/h (0 Bft) 0,00 %
01.07.2015 20:55 23,2 C 55 % 1017,6 hPa 0,0 l/m 0,7 km/h (0 Bft) O-SO 123 0 min 0,000 mm 0,0 UV-I 0 W/m 13,6 C 23,2 C 4,0 km/h (1 Bft) 0,00 %
01.07.2015 21:00 23,0 C 57 % 1017,5 hPa 0,0 l/m 0,0 km/h (0 Bft) O 88 0 min 0,000 mm 0,0 UV-I 0 W/m 14,0 C 23,0 C 0,0 km/h (0 Bft) 0,00 %
01.07.2015 21:05 22,7 C 58 % 1017,8 hPa 0,0 l/m 0,0 km/h (0 Bft) NO 44 0 min 0,000 mm 0,0 UV-I 0 W/m 14,0 C 22,7 C 0,0 km/h (0 Bft) 0,00 %
01.07.2015 21:10 22,4 C 59 % 1017,7 hPa 0,0 l/m 0,0 km/h (0 Bft) N-NO 17 0 min 0,000 mm 0,0 UV-I 0 W/m 14,0 C 22,4 C 0,0 km/h (0 Bft) 0,00 %
01.07.2015 21:15 22,0 C 60 % 1018,1 hPa 0,0 l/m 0,4 km/h (0 Bft) O-NO 74 0 min 0,000 mm 0,0 UV-I 0 W/m 13,9 C 22,0 C 4,0 km/h (1 Bft) 0,00 %
01.07.2015 21:20 21,8 C 61 % 1018,1 hPa 0,0 l/m 0,0 km/h (0 Bft) NO 52 0 min 0,000 mm 0,0 UV-I 0 W/m 13,9 C 21,8 C 0,0 km/h (0 Bft) 0,00 %
01.07.2015 21:25 21,6 C 62 % 1018,2 hPa 0,0 l/m 0,0 km/h (0 Bft) NO 44 0 min 0,000 mm 0,0 UV-I 0 W/m 14,0 C 21,6 C 0,0 km/h (0 Bft) 0,00 %
01.07.2015 21:30 21,4 C 62 % 1018,2 hPa 0,0 l/m 0,4 km/h (0 Bft) O-SO 109 0 min 0,000 mm 0,0 UV-I 0 W/m 13,8 C 21,4 C 4,0 km/h (1 Bft) 0,00 %
01.07.2015 21:35 21,3 C 62 % 1018,3 hPa 0,0 l/m 0,0 km/h (0 Bft) O 82 0 min 0,000 mm 0,0 UV-I 0 W/m 13,7 C 21,3 C 0,0 km/h (0 Bft) 0,00 %
01.07.2015 21:40 21,1 C 63 % 1018,3 hPa 0,0 l/m 0,0 km/h (0 Bft) O-NO 62 0 min 0,000 mm 0,0 UV-I 0 W/m 13,8 C 21,1 C 0,0 km/h (0 Bft) 0,00 %
01.07.2015 21:45 21,0 C 63 % 1018,4 hPa 0,0 l/m 0,0 km/h (0 Bft) O-NO 66 0 min 0,000 mm 0,0 UV-I 0 W/m 13,7 C 21,0 C 0,0 km/h (0 Bft) 0,00 %
01.07.2015 21:50 21,0 C 64 % 1018,2 hPa 0,0 l/m 0,4 km/h (0 Bft) SO 131 0 min 0,000 mm 0,0 UV-I 0 W/m 13,9 C 21,0 C 4,0 km/h (1 Bft) 0,00 %
01.07.2015 21:55 21,0 C 65 % 1018,5 hPa 0,0 l/m 7,9 km/h (2 Bft) O-SO 111 0 min 0,000 mm 0,0 UV-I 0 W/m 14,2 C 20,4 C 15,8 km/h (3 Bft) 0,00 %
01.07.2015 22:00 20,9 C 65 % 1018,6 hPa 0,0 l/m 0,0 km/h (0 Bft) NO 56 0 min 0,000 mm 0,0 UV-I 0 W/m 14,1 C 20,9 C 0,0 km/h (0 Bft) 0,00 %
01.07.2015 22:05 20,8 C 66 % 1018,6 hPa 0,0 l/m 0,0 km/h (0 Bft) O-NO 68 0 min 0,000 mm 0,0 UV-I 0 W/m 14,2 C 20,8 C 0,0 km/h (0 Bft) 0,00 %
01.07.2015 22:10 20,7 C 66 % 1018,7 hPa 0,0 l/m 0,0 km/h (0 Bft) O-SO 102 0 min 0,000 mm 0,0 UV-I 0 W/m 14,1 C 20,7 C 0,0 km/h (0 Bft) 0,00 %
01.07.2015 22:15 20,5 C 68 % 1018,8 hPa 0,0 l/m 2,9 km/h (1 Bft) O-SO 105 0 min 0,000 mm 0,0 UV-I 0 W/m 14,4 C 20,5 C 4,0 km/h (1 Bft) 0,00 %
01.07.2015 22:20 20,4 C 67 % 1018,7 hPa 0,0 l/m 0,0 km/h (0 Bft) NO 44 0 min 0,000 mm 0,0 UV-I 0 W/m 14,1 C 20,4 C 0,0 km/h (0 Bft) 0,00 %
01.07.2015 22:25 20,4 C 67 % 1018,7 hPa 0,0 l/m 0,0 km/h (0 Bft) O 83 0 min 0,000 mm 0,0 UV-I 0 W/m 14,1 C 20,4 C 0,0 km/h (0 Bft) 0,00 %
01.07.2015 22:30 20,3 C 67 % 1018,6 hPa 0,0 l/m 0,0 km/h (0 Bft) O-NO 61 0 min 0,000 mm 0,0 UV-I 0 W/m 14,0 C 20,3 C 0,0 km/h (0 Bft) 0,00 %
01.07.2015 22:35 20,3 C 68 % 1018,8 hPa 0,0 l/m 0,0 km/h (0 Bft) NO 39 0 min 0,000 mm 0,0 UV-I 0 W/m 14,2 C 20,3 C 0,0 km/h (0 Bft) 0,00 %
01.07.2015 22:40 20,1 C 69 % 1018,8 hPa 0,0 l/m 0,0 km/h (0 Bft) O-SO 108 0 min 0,000 mm 0,0 UV-I 0 W/m 14,2 C 20,1 C 0,0 km/h (0 Bft) 0,00 %
01.07.2015 22:45 19,9 C 70 % 1018,9 hPa 0,0 l/m 0,0 km/h (0 Bft) O-NO 74 0 min 0,000 mm 0,0 UV-I 0 W/m 14,3 C 19,9 C 0,0 km/h (0 Bft) 0,00 %
01.07.2015 22:50 19,8 C 70 % 1018,9 hPa 0,0 l/m 0,0 km/h (0 Bft) O-SO 110 0 min 0,000 mm 0,0 UV-I 0 W/m 14,2 C 19,8 C 0,0 km/h (0 Bft) 0,00 %
01.07.2015 22:55 19,8 C 70 % 1019,0 hPa 0,0 l/m 0,0 km/h (0 Bft) NO 50 0 min 0,000 mm 0,0 UV-I 0 W/m 14,2 C 19,8 C 0,0 km/h (0 Bft) 0,00 %
01.07.2015 23:00 19,7 C 70 % 1018,9 hPa 0,0 l/m 0,0 km/h (0 Bft) O-NO 61 0 min 0,000 mm 0,0 UV-I 0 W/m 14,1 C 19,7 C 0,0 km/h (0 Bft) 0,00 %
01.07.2015 23:05 19,7 C 70 % 1018,9 hPa 0,0 l/m 0,0 km/h (0 Bft) NO 53 0 min 0,000 mm 0,0 UV-I 0 W/m 14,1 C 19,7 C 0,0 km/h (0 Bft) 0,00 %
01.07.2015 23:10 19,5 C 71 % 1018,9 hPa 0,0 l/m 0,0 km/h (0 Bft) O 87 0 min 0,000 mm 0,0 UV-I 0 W/m 14,1 C 19,5 C 0,0 km/h (0 Bft) 0,00 %
01.07.2015 23:15 19,4 C 71 % 1019,2 hPa 0,0 l/m 0,0 km/h (0 Bft) NO 44 0 min 0,000 mm 0,0 UV-I 0 W/m 14,0 C 19,4 C 0,0 km/h (0 Bft) 0,00 %
01.07.2015 23:20 19,2 C 71 % 1019,1 hPa 0,0 l/m 0,0 km/h (0 Bft) O-NO 76 0 min 0,000 mm 0,0 UV-I 0 W/m 13,8 C 19,2 C 0,0 km/h (0 Bft) 0,00 %
01.07.2015 23:25 19,2 C 72 % 1019,0 hPa 0,0 l/m 0,0 km/h (0 Bft) NO 45 0 min 0,000 mm 0,0 UV-I 0 W/m 14,0 C 19,2 C 0,0 km/h (0 Bft) 0,00 %
01.07.2015 23:30 19,1 C 72 % 1019,0 hPa 0,0 l/m 0,0 km/h (0 Bft) O 88 0 min 0,000 mm 0,0 UV-I 0 W/m 13,9 C 19,1 C 0,0 km/h (0 Bft) 0,00 %
01.07.2015 23:35 19,1 C 72 % 1019,0 hPa 0,0 l/m 0,0 km/h (0 Bft) NO 56 0 min 0,000 mm 0,0 UV-I 0 W/m 13,9 C 19,1 C 0,0 km/h (0 Bft) 0,00 %
01.07.2015 23:40 19,0 C 74 % 1019,1 hPa 0,0 l/m 0,0 km/h (0 Bft) O 80 0 min 0,000 mm 0,0 UV-I 0 W/m 14,3 C 19,0 C 0,0 km/h (0 Bft) 0,00 %
01.07.2015 23:45 18,9 C 72 % 1019,1 hPa 0,0 l/m 0,0 km/h (0 Bft) NO 48 0 min 0,000 mm 0,0 UV-I 0 W/m 13,7 C 18,9 C 0,0 km/h (0 Bft) 0,00 %
01.07.2015 23:50 18,9 C 72 % 1019,0 hPa 0,0 l/m 0,0 km/h (0 Bft) NO 48 0 min 0,000 mm 0,0 UV-I 0 W/m 13,7 C 18,9 C 0,0 km/h (0 Bft) 0,00 %
_ Min-Zeit 05:15 16:45 18:15 - 00:00 - - - - - - 17:00 05:15 00:00 00:00
Minimum _ 13,1 C 33 % 1016,3 hPa - 0,0 km/h (0 Bft) - - - - - - 10,4 C 13,1 C 0,0 km/h (0 Bft) 0,00 %
_ Max-Zeit 16:50 04:25 05:45 00:00 14:40 - - 05:45 00:00 12:40 15:20 09:45 16:50 14:40 00:00
Maximum _ 28,5 C 96 % 1020,2 hPa 0,0 l/m 15,8 km/h
O (3 Bft)
- - 5 min 0,000 mm 6,0 UV-I 947 W/m 14,8 C 28,5 C 19,8 km/h
O (3 Bft)
0,00 %
Durchschnitt _ 21,9 C 62 % 1018,6 hPa #0,0 l/m 1,8 km/h (1 Bft) O - #14:40 h #0,000 mm 3,0 UV-I 624 W/m 13,2 C 21,9 C 3,4 km/h (1 Bft) 0,00 %